TimeEDT,TemperatureF,Dew PointF,Humidity,Sea Level PressureIn,VisibilityMPH,Wind Direction,Wind SpeedMPH,Gust SpeedMPH,PrecipitationIn,Events,Conditions,WindDirDegrees,DateUTC
12:53 AM,84.0,73.9,72,29.93,10.0,SE,6.9,-,N/A,,Partly Cloudy,130,2013-06-29 04:53:00
1:53 AM,82.9,73.9,74,29.90,10.0,SE,9.2,-,N/A,,Clear,140,2013-06-29 05:53:00
2:53 AM,82.9,75.0,77,29.89,10.0,SE,8.1,-,N/A,,Clear,140,2013-06-29 06:53:00
3:53 AM,82.9,73.9,74,29.88,10.0,SE,6.9,-,N/A,,Clear,130,2013-06-29 07:53:00
4:53 AM,82.9,75.0,77,29.88,10.0,SSE,4.6,-,N/A,,Clear,160,2013-06-29 08:53:00
5:53 AM,82.9,73.9,74,29.89,10.0,South,6.9,-,N/A,,Mostly Cloudy,180,2013-06-29 09:53:00
6:53 AM,82.9,75.0,77,29.91,10.0,SSW,8.1,-,N/A,,Clear,210,2013-06-29 10:53:00
7:53 AM,82.9,75.9,79,29.91,10.0,SSW,5.8,-,N/A,,Clear,200,2013-06-29 11:53:00
8:53 AM,84.0,75.0,74,29.91,10.0,South,6.9,-,N/A,,Clear,180,2013-06-29 12:53:00
9:53 AM,84.0,75.0,74,29.91,10.0,South,5.8,-,N/A,,Clear,190,2013-06-29 13:53:00
10:53 AM,84.9,75.0,72,29.91,10.0,South,4.6,-,N/A,,Clear,190,2013-06-29 14:53:00
11:53 AM,86.0,73.9,67,29.91,10.0,South,8.1,-,N/A,,Clear,170,2013-06-29 15:53:00
12:53 PM,86.0,75.0,70,29.91,10.0,South,8.1,-,N/A,,Partly Cloudy,180,2013-06-29 16:53:00
1:35 PM,87.8,75.2,66,29.91,10.0,South,6.9,-,N/A,,Mostly Cloudy,180,2013-06-29 17:35:00
1:42 PM,86.0,75.2,70,29.90,10.0,South,8.1,-,N/A,,Scattered Clouds,190,2013-06-29 17:42:00
1:53 PM,86.0,75.9,72,29.91,10.0,South,6.9,-,N/A,,Partly Cloudy,190,2013-06-29 17:53:00
2:53 PM,87.1,75.0,67,29.89,10.0,SSW,9.2,-,N/A,,Clear,200,2013-06-29 18:53:00
3:53 PM,86.0,73.9,67,29.89,10.0,South,8.1,-,N/A,,Clear,170,2013-06-29 19:53:00
4:53 PM,86.0,75.0,70,29.88,10.0,South,8.1,-,N/A,,Clear,180,2013-06-29 20:53:00
5:53 PM,86.0,73.9,67,29.88,10.0,SSW,9.2,-,N/A,,Clear,200,2013-06-29 21:53:00
6:53 PM,86.0,75.0,70,29.88,5.0,South,9.2,-,N/A,,Haze,180,2013-06-29 22:53:00
7:53 PM,84.0,75.0,74,29.89,8.0,SSW,11.5,-,N/A,,Partly Cloudy,200,2013-06-29 23:53:00
8:53 PM,82.9,73.9,74,29.91,10.0,SSW,10.4,-,N/A,,Clear,200,2013-06-30 00:53:00
9:53 PM,82.9,73.9,74,29.92,10.0,SSW,10.4,-,N/A,,Clear,200,2013-06-30 01:53:00
10:53 PM,82.9,73.9,74,29.93,10.0,SSW,12.7,-,N/A,,Clear,200,2013-06-30 02:53:00
11:46 PM,82.4,73.4,74,29.93,10.0,SSW,15.0,-,N/A,,Mostly Cloudy,200,2013-06-30 03:46:00
11:53 PM,82.9,73.9,74,29.92,10.0,South,12.7,-,N/A,,Scattered Clouds,190,2013-06-30 03:53:00